Location: Cluj-Napoca
(46.7712°N, 23.6236°E)
Time: 11:36:07
(UTC+03:00)

ISS - Pass Details

Date: 14 May 2021
Orbit: 417 x 422 km, 51.6° (Epoch: 15 May)

Event Time Altitude Azimuth Distance (km) Brightness Sun altitude
Rises 22:14:16 0° 211° (SSW) 2,348 -0.1 -12.0°
Reaches altitude 10° 22:16:34 10° 198° (SSW) 1,490 -1.2 -12.3°
Maximum altitude 22:19:23 25° 140° (SE) 876 -2.8 -12.6°
Enters shadow 22:21:43 13° 88° (E) 1,328 -1.6 -12.9°
